AirNav   Pilot Hours Calculator
 
 1171 users online  

88AZ Grapevine Airstrip
Roosevelt, Arizona, USA

GOING TO ROOSEVELT?


FAA INFORMATION EFFECTIVE 11 AUGUST 2022

Location

FAA Identifier: 88AZ
Lat/Long: 33-38-27.2700N 111-03-24.9000W
33-38.454500N 111-03.415000W
33.6409083,-111.0569167
(estimated)
Elevation: 2329 ft. / 710 m (estimated)
Variation: 11E (2015)
From city: 5 miles SE of ROOSEVELT, AZ
Time zone: UTC -7 (year round; does not observe DST)
Zip code: 85545

Airport Operations

Airport use: Private use. Permission required prior to landing
Activation date: 11/2016
Control tower: no
ARTCC: ALBUQUERQUE CENTER
FSS: PRESCOTT FLIGHT SERVICE STATION
Attendance: 
Wind indicator: yes
Segmented circle: yes

Airport Communications

CTAF: 122.9

Nearby radio navigation aids

VOR radial/distance  VOR name  Freq  Var
IWAr043/36.0WILLIE VORTAC113.3013E

Airport Services

Runway Information

Runway 17/35

Dimensions: 3800 x 40 ft. / 1158 x 12 m
Surface: asphalt/concrete
RUNWAY 17  RUNWAY 35
Traffic pattern: leftleft
Runway heading: 159 magnetic, 170 true339 magnetic, 350 true

Airport Ownership and Management from official FAA records

Ownership: Publicly-owned
Owner: U.S. FOREST SERV, TONTO NATL FOREST
TONTO BASIN DISTRICT, 28079 N. AZ HWY 188
ROOSEVELT, AZ 85545
Phone (602) 225-5395
Manager: U.S. FOREST SERV, TONTO NATL FOREST
TONTO BASIN DISTRICT, 28079 N. AZ HWY 188
ROOSEVELT, AZ 85545
Phone (602) 225-5395

Additional Remarks

USE AT PILOTS OWN RISK, NO TRAINING OR TOUCH AND GOES PERMITED.
CONTACT GRAPEVINE@AZPILOTS.ORG FOR CAMPING AND USE INFO.
HAZARDOUS RUNWAY EDGES, AVOID USAGE WHEN CROSS WINDS PRESENT.
RISING TERRAIN WEST OF RWY.
MILTARY TRAINING ACTIVITY POSSIBLE.
DIRT PARKING EAST SIDE OF RWY AT MIDFIELD, NO TIE DOWNS. LIMITED RAMP PARKING W/TIE DOWNS AT WEST RAMP. CALM WIND RWY 17.
AVOID OVERFLIGHT OF TONTO NATIONAL MONUMENT, 3.25 MILES WNW OF AIRSTRIP, OR ANY CAMP GROUNDS.
FOR CD CTC ALBUQUERQUE ARTCC AT 505-856-4861.

Instrument Procedures

There are no published instrument procedures at 88AZ.

Some nearby airports with instrument procedures:

P13 - San Carlos Apache Airport (26 nm SE)
KFFZ - Falcon Field Airport (35 nm W)
KIWA - Phoenix-Mesa Gateway Airport (36 nm SW)
KPAN - Payson Airport (40 nm N)
KSDL - Scottsdale Airport (43 nm W)
 
Loc | Ops | Rwys | IFR | FBO | Links
Com | Nav | Svcs | Stats | Notes
Aerial photo
WARNING: Photo may not be current or correct
Aerial photo of 88AZ (Grapevine Airstrip)
Photo by David Mersereau of Anchorage, AK
Photo taken 17-Nov-2018
looking south.

Do you have a better or more recent aerial photo of Grapevine Airstrip that you would like to share? If so, please send us your photo.

 
Airport distance calculator
Flying to Grapevine Airstrip? Find the distance to fly.

From to 88AZ

Sunrise and sunset
Times for 16-Aug-2022
 Local
(UTC-7)
 Zulu
(UTC)
Morning civil twilight05:2212:22
Sunrise05:4812:48
Sunset19:0902:09
Evening civil twilight19:3502:35

Current date and time
Zulu (UTC)  17-Aug-2022 01:53:10
Local (UTC-7)  16-Aug-2022 18:53:10
 
METAR
KFFZ 
35nm W 
170054Z 30004KT 10SM CLR 38/16 A2972 RMK AO2 SLP037 T03830161
KIWA 
36nm SW 
170047Z 27009KT 10SM SCT120 39/16 A2974 PO RMK TCU DSNT ALQDS
KPAN 
40nm N 
170135Z AUTO 25005KT 10SM CLR 28/12 A3009 RMK AO2 PWINO TSNO
KSDL 
43nm W 
170053Z VRB03KT 10SM CLR 39/16 A2974 RMK AO2 SLP041 T03890156
KCHD 
44nm SW 
170047Z 24010KT 10SM SCT240 39/16 A2972
KP08 
46nm SW 
170130Z AUTO 32007KT 10SM CLR 37/15 A2976 RMK AO2
TAF
KIWA 
36nm SW 
161739Z 1618/1718 17005KT P6SM FEW080 FEW150 FM161900 26008KT P6SM FEW080 FEW150 FEW250 FM162300 27010KT P6SM VCSH FEW080 SCT150 SCT250 FM170300 26007KT P6SM FEW150 FEW250 FM170600 12008KT P6SM FEW150 FEW250
KSDL 
43nm W 
161739Z 1618/1718 VRB05KT P6SM FEW080 FEW150 FM162000 23007KT P6SM FEW080 FEW150 FEW250 FM162300 23008KT P6SM VCSH FEW080 SCT150 SCT250 FM170400 VRB03KT P6SM FEW150 FEW250
NOTAMs
Click for the latest NOTAMs
NOTAMs are issued by the DoD/FAA and will open in a separate window not controlled by AirNav.

 

 
 

Would you like to see your business listed on this page?

 If your business provides an interesting product or service to pilots, flight crews, aircraft, or users of the Grapevine Airstrip, you should consider listing it here.  To start the listing process, click on the button below
 
Add a business
 

Other Pages about Grapevine Airstrip

Update a link
 
Copyright © AirNav, LLC. All rights reserved. Privacy Policy  Contact